Simultaneous Nadir Overpasses (SNOs) Predictions

Prediction of SNOs between GOES-17 and NOAA-20 Satellite Orbit:

Table of predicted SNOs for the next 14.0 days since TLE Epoch: 7/14/2024
Index Date Time (GOES-17) GOES-17 Lat,Lon NOAA-20 Lat,Lon Distance(km) Time Diff (sec)
1 07/15/2024 08:38:35 -0.01,-104.71 0.77,-108.08 384.59 80
2 07/16/2024 08:17:12 -0.01,-104.71 -0.29,-103.57 131.42 80
3 07/17/2024 20:39:09 0.01,-104.72 -0.89,-108.88 473.39 80
4 07/18/2024 20:23:05 0.01,-104.72 0.11,-104.35 42.59 80
5 07/21/2024 08:26:07 -0.01,-104.71 0.09,-105.09 43.73 80
6 07/22/2024 08:04:43 -0.01,-104.70 -0.92,-100.56 471.98 80
7 07/23/2024 20:26:40 0.01,-104.70 -0.26,-105.87 133.10 80
8 07/24/2024 20:10:36 0.01,-104.70 0.76,-101.34 383.03 80
9 07/26/2024 08:32:23 -0.01,-104.70 0.44,-106.61 218.26 80
10 07/27/2024 08:10:59 -0.00,-104.70 -0.58,-102.08 297.74 80
